Regional Weather Roundup
Issued by NWS Cleveland, OH

Home | Current Version | Previous Version | Text Only | Print | Product List | Glossary Off
Versions: 1 2 3 4 5 6 7 8 9 10 11 12 13 14 15 16 17 18 19 20 21 22 23 24 25 26 27 28 29 30 31 32 33 34 35 36 37 38 39 40 41 42 43 44 45 46 47 48 49 50

000
ASUS41 KCLE 230802
RWRCLE
OHIO REGIONAL WEATHER ROUNDUP
NATIONAL WEATHER SERVICE CLEVELAND, OH
400 AM EDT FRI JUN 23 2017

NOTE: "FAIR" INDICATES FEW OR NO CLOUDS BELOW 12,000 FEET WITH NO
SIGNIFICANT WEATHER AND/OR OBSTRUCTIONS TO VISIBILITY.

OHZ001>008-015>018-024>027-034-035-043-044-230900-
   NORTHWEST OHIO

CITY           SKY/WX    TMP DP  RH WIND       PRES   REMARKS
DEFIANCE       CLOUDY    70  68  93 S10       29.71F
FINDLAY        LGT RAIN  72  66  81 S14       29.72F
TOLEDO EXPRESS MOCLDY    71  69  93 SW7       29.70F
TOLEDO EXEC    CLOUDY    73  69  87 S12       29.71F
LIMA           LGT RAIN  70  69  97 S10       29.74F
$$

OHZ009>014-019>023-028>033-038-089-230900-
   NORTHEAST OHIO

CITY           SKY/WX    TMP DP  RH WIND       PRES   REMARKS
CLE-HOPKINS    CLOUDY    75  67  76 S10       29.78F
CLE-LAKEFRONT  CLOUDY    75  65  70 S13       29.75F
CUY CO. ARPT   NOT AVBL
LORAIN-ELYRIA  CLOUDY    73  62  68 SW15      29.77F
ASHTABULA      PTCLDY    73  68  84 S9        29.79F
AKRON-CANTON   CLOUDY    72  65  78 S13       29.80F
WOOSTER        CLOUDY    71  66  84 S13       29.80F
MANSFIELD      CLOUDY    71  66  84 S13       29.79F
YOUNGSTOWN     CLOUDY    71  65  81 SW9       29.81F
$$

OHZ042-051>053-060>062-070>072-077>081-230900-
  SOUTHWEST OHIO

CITY           SKY/WX    TMP DP  RH WIND       PRES   REMARKS
CINC-COVINGTON CLOUDY    73  72  96 S12G18    29.79F
CINC-LUNKEN    CLOUDY    74  74 100 S12       29.79F
HAMILTON       CLOUDY    74  72  93 SW6       29.79F
DAYTON         LGT RAIN  71  70  96 SW12      29.79F FOG
WRIGHT-PAT AFB CLOUDY    72  72 100 S14       29.77F
DAYTON GENERAL CLOUDY    72  70  93 SW10      29.79F
WILMINGTON     CLOUDY    71  71 100 SW14G23   29.80F
$$

OHZ036-037-039>041-045>050-054>059-063>069-073>076-082>088-230900-
  CENTRAL AND SOUTHEAST OHIO

CITY           SKY/WX    TMP DP  RH WIND       PRES   REMARKS
COLUMBUS       LGT RAIN  71  71 100 S12       29.79F
OSU AIRPORT    CLOUDY    70  70 100 S9        29.79F
BOLTON FIELD   NOT AVBL
RICKENBACK AFB CLOUDY    69  69 100 S14G21    29.79F
NEWARK         TSTM      70  68  93 S7        29.80F FOG
MARION         LGT RAIN  70  67  90 S12       29.77F FOG
LANCASTER      CLOUDY    69  69 100 S6        29.81F
ZANESVILLE     HVY RAIN  70  68  93 S7        29.82F FOG
NEW PHILLY     NOT AVBL
$$



USA.gov is the U.S. government's official web portal to all federal, state and local government web resources and services.